Year,Month,Day,Hour,Minute,Value (Times are PST for temperature in C)
2018,08,10,00,00,13.50
2018,08,10,00,01,13.50
2018,08,10,00,02,13.50
2018,08,10,00,03,13.50
2018,08,10,00,04,13.50
2018,08,10,00,05,13.50
2018,08,10,00,06,13.50
2018,08,10,00,07,13.50
2018,08,10,00,08,13.50
2018,08,10,00,09,13.50
2018,08,10,00,10,13.50
2018,08,10,00,11,13.50
2018,08,10,00,12,13.50
2018,08,10,00,13,13.50
2018,08,10,00,14,13.50
2018,08,10,00,15,13.60
2018,08,10,00,16,13.60
2018,08,10,00,17,13.60
2018,08,10,00,18,13.60
2018,08,10,00,19,13.60
2018,08,10,00,20,13.60
2018,08,10,00,21,13.60
2018,08,10,00,22,13.60
2018,08,10,00,23,13.60
2018,08,10,00,24,13.60
2018,08,10,00,25,13.60
2018,08,10,00,26,13.60
2018,08,10,00,27,13.60
2018,08,10,00,28,13.60
2018,08,10,00,29,13.70
2018,08,10,00,30,13.70
2018,08,10,00,31,13.70
2018,08,10,00,32,13.70
2018,08,10,00,33,13.70
2018,08,10,00,34,13.70
2018,08,10,00,35,13.70
2018,08,10,00,36,13.70
2018,08,10,00,37,13.70
2018,08,10,00,38,13.70
2018,08,10,00,39,13.70
2018,08,10,00,40,13.70
2018,08,10,00,41,13.70
2018,08,10,00,42,13.70
2018,08,10,00,43,13.70
2018,08,10,00,44,13.70
2018,08,10,00,45,13.70
2018,08,10,00,46,13.70
2018,08,10,00,47,13.70
2018,08,10,00,48,13.70
2018,08,10,00,49,13.70
2018,08,10,00,50,13.70
2018,08,10,00,51,13.70
2018,08,10,00,52,13.70
2018,08,10,00,53,13.70
2018,08,10,00,54,13.80
2018,08,10,00,55,13.80
2018,08,10,00,56,13.80
2018,08,10,00,57,13.80
2018,08,10,00,58,13.80
2018,08,10,00,59,13.80
2018,08,10,01,00,13.80
2018,08,10,01,01,13.80
2018,08,10,01,02,13.80
2018,08,10,01,03,13.80
2018,08,10,01,04,13.80
2018,08,10,01,05,13.80
2018,08,10,01,06,13.80
2018,08,10,01,07,13.80
2018,08,10,01,08,13.90
2018,08,10,01,09,13.90
2018,08,10,01,10,13.90
2018,08,10,01,11,13.90
2018,08,10,01,12,13.90
2018,08,10,01,13,13.90
2018,08,10,01,14,13.90
2018,08,10,01,15,13.90
2018,08,10,01,16,13.90
2018,08,10,01,17,13.90
2018,08,10,01,18,13.90
2018,08,10,01,19,13.90
2018,08,10,01,20,13.90
2018,08,10,01,21,13.90
2018,08,10,01,22,13.90
2018,08,10,01,23,13.90
2018,08,10,01,24,13.90
2018,08,10,01,25,13.90
2018,08,10,01,26,13.90
2018,08,10,01,27,13.90
2018,08,10,01,28,13.90
2018,08,10,01,29,13.90
2018,08,10,01,30,13.90
2018,08,10,01,31,13.90
2018,08,10,01,32,13.90
2018,08,10,01,33,13.90
2018,08,10,01,34,13.90
2018,08,10,01,35,13.90
2018,08,10,01,36,13.90
2018,08,10,01,37,13.90
2018,08,10,01,38,14.00
2018,08,10,01,39,14.00
2018,08,10,01,40,14.00
2018,08,10,01,41,14.00
2018,08,10,01,42,14.00
2018,08,10,01,43,14.00
2018,08,10,01,44,14.00
2018,08,10,01,45,14.00
2018,08,10,01,46,14.00
2018,08,10,01,47,13.90
2018,08,10,01,48,13.90
2018,08,10,01,49,13.90
2018,08,10,01,50,13.90
2018,08,10,01,51,13.90
2018,08,10,01,52,13.90
2018,08,10,01,53,13.90
2018,08,10,01,54,13.90
2018,08,10,01,55,13.90
2018,08,10,01,56,13.90
2018,08,10,01,57,13.90
2018,08,10,01,58,13.90
2018,08,10,01,59,13.90
2018,08,10,02,00,13.90
2018,08,10,02,01,13.90
2018,08,10,02,02,13.90
2018,08,10,02,03,13.90
2018,08,10,02,04,14.00
2018,08,10,02,05,14.00
2018,08,10,02,06,14.00
2018,08,10,02,07,14.00
2018,08,10,02,08,14.00
2018,08,10,02,09,14.00
2018,08,10,02,10,14.00
2018,08,10,02,11,14.00
2018,08,10,02,12,14.00
2018,08,10,02,13,14.00
2018,08,10,02,14,14.00
2018,08,10,02,15,14.00
2018,08,10,02,16,14.00
2018,08,10,02,17,14.10
2018,08,10,02,18,14.10
2018,08,10,02,19,14.10
2018,08,10,02,20,14.10
2018,08,10,02,21,14.10
2018,08,10,02,22,14.10
2018,08,10,02,23,14.10
2018,08,10,02,24,14.10
2018,08,10,02,25,14.10
2018,08,10,02,26,14.10
2018,08,10,02,27,14.10
2018,08,10,02,28,14.10
2018,08,10,02,29,14.10
2018,08,10,02,30,14.10
2018,08,10,02,31,14.10
2018,08,10,02,32,14.20
2018,08,10,02,33,14.20
2018,08,10,02,34,14.20
2018,08,10,02,35,14.20
2018,08,10,02,36,14.20
2018,08,10,02,37,14.20
2018,08,10,02,38,14.20
2018,08,10,02,39,14.20
2018,08,10,02,40,14.20
2018,08,10,02,41,14.20
2018,08,10,02,42,14.20
2018,08,10,02,43,14.20
2018,08,10,02,44,14.20
2018,08,10,02,45,14.20
2018,08,10,02,46,14.20
2018,08,10,02,47,14.20
2018,08,10,02,48,14.20
2018,08,10,02,49,14.30
2018,08,10,02,50,14.30
2018,08,10,02,51,14.30
2018,08,10,02,52,14.30
2018,08,10,02,53,14.30
2018,08,10,02,54,14.40
2018,08,10,02,55,14.40
2018,08,10,02,56,14.40
2018,08,10,02,57,14.40
2018,08,10,02,58,14.40
2018,08,10,02,59,14.50
2018,08,10,03,00,14.50
2018,08,10,03,01,14.50
2018,08,10,03,02,14.50
2018,08,10,03,03,14.60
2018,08,10,03,04,14.60
2018,08,10,03,05,14.60
2018,08,10,03,06,14.70
2018,08,10,03,07,14.70
2018,08,10,03,08,14.80
2018,08,10,03,09,14.80
2018,08,10,03,10,14.80
2018,08,10,03,11,14.80
2018,08,10,03,12,14.90
2018,08,10,03,13,14.90
2018,08,10,03,14,14.90
2018,08,10,03,15,15.00
2018,08,10,03,16,15.00
2018,08,10,03,17,15.00
2018,08,10,03,18,15.00
2018,08,10,03,19,15.00
2018,08,10,03,20,15.10
2018,08,10,03,21,15.10
2018,08,10,03,22,15.10
2018,08,10,03,23,15.10
2018,08,10,03,24,15.20
2018,08,10,03,25,15.20
2018,08,10,03,26,15.20
2018,08,10,03,27,15.20
2018,08,10,03,28,15.20
2018,08,10,03,29,15.30
2018,08,10,03,30,15.30
2018,08,10,03,31,15.30
2018,08,10,03,32,15.30
2018,08,10,03,33,15.30
2018,08,10,03,34,15.30
2018,08,10,03,35,15.30
2018,08,10,03,36,15.30
2018,08,10,03,37,15.30
2018,08,10,03,38,15.40
2018,08,10,03,39,15.40
2018,08,10,03,40,15.40
2018,08,10,03,41,15.40
2018,08,10,03,42,15.40
2018,08,10,03,43,15.40
2018,08,10,03,44,15.50
2018,08,10,03,45,15.50
2018,08,10,03,46,15.50
2018,08,10,03,47,15.50
2018,08,10,03,48,15.60
2018,08,10,03,49,15.60
2018,08,10,03,50,15.60
2018,08,10,03,51,15.60
2018,08,10,03,52,15.60
2018,08,10,03,53,15.60
2018,08,10,03,54,15.70
2018,08,10,03,55,15.70
2018,08,10,03,56,15.60
2018,08,10,03,57,15.60
2018,08,10,03,58,15.60
2018,08,10,03,59,15.60
2018,08,10,04,00,15.60
2018,08,10,04,01,15.70
2018,08,10,04,02,15.70
2018,08,10,04,03,15.70
2018,08,10,04,04,15.80
2018,08,10,04,05,15.80
2018,08,10,04,06,15.80
2018,08,10,04,07,15.80
2018,08,10,04,08,15.80
2018,08,10,04,09,15.90
2018,08,10,04,10,15.90
2018,08,10,04,11,15.90
2018,08,10,04,12,16.00
2018,08,10,04,13,16.10
2018,08,10,04,14,16.10
2018,08,10,04,15,16.10
2018,08,10,04,16,16.10
2018,08,10,04,17,16.10
2018,08,10,04,18,16.10
2018,08,10,04,19,16.10
2018,08,10,04,20,16.10
2018,08,10,04,21,16.20
2018,08,10,04,22,16.20
2018,08,10,04,23,16.20
2018,08,10,04,24,16.20
2018,08,10,04,25,16.10
2018,08,10,04,26,16.10
2018,08,10,04,27,16.10
2018,08,10,04,28,16.10
2018,08,10,04,29,16.10
2018,08,10,04,30,16.10
2018,08,10,04,31,16.10
2018,08,10,04,32,16.10
2018,08,10,04,33,16.00
2018,08,10,04,34,15.90
2018,08,10,04,35,15.90
2018,08,10,04,36,15.90
2018,08,10,04,37,15.80
2018,08,10,04,38,15.80
2018,08,10,04,39,15.80
2018,08,10,04,40,15.80
2018,08,10,04,41,15.80
2018,08,10,04,42,15.80
2018,08,10,04,43,15.80
2018,08,10,04,44,15.70
2018,08,10,04,45,15.70
2018,08,10,04,46,15.70
2018,08,10,04,47,15.70
2018,08,10,04,48,15.60
2018,08,10,04,49,15.60
2018,08,10,04,50,15.60
2018,08,10,04,51,15.60
2018,08,10,04,52,15.60
2018,08,10,04,53,15.60
2018,08,10,04,54,15.60
2018,08,10,04,55,15.60
2018,08,10,04,56,15.60
2018,08,10,04,57,15.60
2018,08,10,04,58,15.60
2018,08,10,04,59,15.50
2018,08,10,05,00,15.50
2018,08,10,05,01,15.50
2018,08,10,05,02,15.50
2018,08,10,05,03,15.50
2018,08,10,05,04,15.50
2018,08,10,05,05,15.50
2018,08,10,05,06,15.50
2018,08,10,05,07,15.50
2018,08,10,05,08,15.40
2018,08,10,05,09,15.40
2018,08,10,05,10,15.40
2018,08,10,05,11,15.30
2018,08,10,05,12,15.30
2018,08,10,05,13,15.20
2018,08,10,05,14,15.10
2018,08,10,05,15,15.00
2018,08,10,05,16,14.90
2018,08,10,05,17,14.80
2018,08,10,05,18,14.70
2018,08,10,05,19,14.60
2018,08,10,05,20,14.60
2018,08,10,05,21,14.50
2018,08,10,05,22,14.50
2018,08,10,05,23,14.40
2018,08,10,05,24,14.40
2018,08,10,05,25,14.30
2018,08,10,05,26,14.30
2018,08,10,05,27,14.20
2018,08,10,05,28,14.20
2018,08,10,05,29,14.20
2018,08,10,05,30,14.20
2018,08,10,05,31,14.20
2018,08,10,05,32,14.20
2018,08,10,05,33,14.20
2018,08,10,05,34,14.20
2018,08,10,05,35,14.10
2018,08,10,05,36,14.10
2018,08,10,05,37,14.10
2018,08,10,05,38,14.10
2018,08,10,05,39,14.10
2018,08,10,05,40,14.20
2018,08,10,05,41,14.20
2018,08,10,05,42,14.20
2018,08,10,05,43,14.20
2018,08,10,05,44,14.20
2018,08,10,05,45,14.20
2018,08,10,05,46,14.20
2018,08,10,05,47,14.30
2018,08,10,05,48,14.30
2018,08,10,05,49,14.40
2018,08,10,05,50,14.50
2018,08,10,05,51,14.50
2018,08,10,05,52,14.60
2018,08,10,05,53,14.60
2018,08,10,05,54,14.70
2018,08,10,05,55,14.70
2018,08,10,05,56,14.80
2018,08,10,05,57,14.80
2018,08,10,05,58,14.90
2018,08,10,05,59,15.00
2018,08,10,06,00,15.00
2018,08,10,06,01,15.10
2018,08,10,06,02,15.10
2018,08,10,06,03,15.20
2018,08,10,06,04,15.20
2018,08,10,06,05,15.30
2018,08,10,06,06,15.30
2018,08,10,06,07,15.30
2018,08,10,06,08,15.40
2018,08,10,06,09,15.40
2018,08,10,06,10,15.50
2018,08,10,06,11,15.50
2018,08,10,06,12,15.60
2018,08,10,06,13,15.60
2018,08,10,06,14,15.70
2018,08,10,06,15,15.70
2018,08,10,06,16,15.60
2018,08,10,06,17,15.50
2018,08,10,06,18,15.40
2018,08,10,06,19,15.30
2018,08,10,06,20,15.10
2018,08,10,06,21,15.00
2018,08,10,06,22,14.90
2018,08,10,06,23,14.80
2018,08,10,06,24,14.60
2018,08,10,06,25,14.60
2018,08,10,06,26,14.50
2018,08,10,06,27,14.40
2018,08,10,06,28,14.30
2018,08,10,06,29,14.20
2018,08,10,06,30,14.20
2018,08,10,06,31,14.10
2018,08,10,06,32,14.00
2018,08,10,06,33,14.00
2018,08,10,06,34,13.90
2018,08,10,06,35,13.90
2018,08,10,06,36,13.90
2018,08,10,06,37,13.80
2018,08,10,06,38,13.80
2018,08,10,06,39,13.70
2018,08,10,06,40,13.70
2018,08,10,06,41,13.70
2018,08,10,06,42,13.70
2018,08,10,06,43,13.70
2018,08,10,06,44,13.60
2018,08,10,06,45,13.60
2018,08,10,06,46,13.60
2018,08,10,06,47,13.60
2018,08,10,06,48,13.50
2018,08,10,06,49,13.50
2018,08,10,06,50,13.50
2018,08,10,06,51,13.50
2018,08,10,06,52,13.50
2018,08,10,06,53,13.50
2018,08,10,06,54,13.50
2018,08,10,06,55,13.60
2018,08,10,06,56,13.60
2018,08,10,06,57,13.60
2018,08,10,06,58,13.60
2018,08,10,06,59,13.70
2018,08,10,07,00,13.70
2018,08,10,07,01,13.70
2018,08,10,07,02,13.70
2018,08,10,07,03,13.80
2018,08,10,07,04,13.90
2018,08,10,07,05,13.90
2018,08,10,07,06,14.00
2018,08,10,07,07,14.10
2018,08,10,07,08,14.20
2018,08,10,07,09,14.20
2018,08,10,07,10,14.30
2018,08,10,07,11,14.40
2018,08,10,07,12,14.50
2018,08,10,07,13,14.60
2018,08,10,07,14,14.80
2018,08,10,07,15,14.90
2018,08,10,07,16,15.00
2018,08,10,07,17,15.10
2018,08,10,07,18,15.30
2018,08,10,07,19,15.30
2018,08,10,07,20,15.40
2018,08,10,07,21,15.50
2018,08,10,07,22,15.50
2018,08,10,07,23,15.60
2018,08,10,07,24,15.60
2018,08,10,07,25,15.70
2018,08,10,07,26,15.70
2018,08,10,07,27,15.80
2018,08,10,07,28,15.80
2018,08,10,07,29,15.80
2018,08,10,07,30,15.80
2018,08,10,07,31,15.90
2018,08,10,07,32,15.90
2018,08,10,07,33,15.90
2018,08,10,07,34,15.90
2018,08,10,07,35,15.90
2018,08,10,07,36,16.00
2018,08,10,07,37,16.10
2018,08,10,07,38,16.10
2018,08,10,07,39,16.10
2018,08,10,07,40,16.10
2018,08,10,07,41,16.10
2018,08,10,07,42,16.10
2018,08,10,07,43,16.10
2018,08,10,07,44,16.20
2018,08,10,07,45,16.20
2018,08,10,07,46,16.20
2018,08,10,07,47,16.30
2018,08,10,07,48,16.30
2018,08,10,07,49,16.30
2018,08,10,07,50,16.40
2018,08,10,07,51,16.40
2018,08,10,07,52,16.40
2018,08,10,07,53,16.40
2018,08,10,07,54,16.40
2018,08,10,07,55,16.40
2018,08,10,07,56,16.40
2018,08,10,07,57,16.40
2018,08,10,07,58,16.50
2018,08,10,07,59,16.60
2018,08,10,08,00,16.60
2018,08,10,08,01,16.60
2018,08,10,08,02,16.60
2018,08,10,08,03,16.60
2018,08,10,08,04,16.60
2018,08,10,08,05,16.60
2018,08,10,08,06,16.60
2018,08,10,08,07,16.60
2018,08,10,08,08,16.70
2018,08,10,08,09,16.70
2018,08,10,08,10,16.70
2018,08,10,08,11,16.70
2018,08,10,08,12,16.70
2018,08,10,08,13,16.70
2018,08,10,08,14,16.70
2018,08,10,08,15,16.70
2018,08,10,08,16,16.70
2018,08,10,08,17,16.70
2018,08,10,08,18,16.70
2018,08,10,08,19,16.80
2018,08,10,08,20,16.80
2018,08,10,08,21,16.80
2018,08,10,08,22,16.80
2018,08,10,08,23,16.80
2018,08,10,08,24,16.80
2018,08,10,08,25,16.80
2018,08,10,08,26,16.90
2018,08,10,08,27,16.90
2018,08,10,08,28,16.90
2018,08,10,08,29,16.90
2018,08,10,08,30,16.90
2018,08,10,08,31,17.00
2018,08,10,08,32,17.00
2018,08,10,08,33,17.00
2018,08,10,08,34,17.10
2018,08,10,08,35,17.10
2018,08,10,08,36,17.10
2018,08,10,08,37,17.20
2018,08,10,08,38,17.20
2018,08,10,08,39,17.30
2018,08,10,08,40,17.30
2018,08,10,08,41,17.40
2018,08,10,08,42,17.40
2018,08,10,08,43,17.50
2018,08,10,08,44,17.50
2018,08,10,08,45,17.60
2018,08,10,08,46,17.60
2018,08,10,08,47,17.70
2018,08,10,08,48,17.70
2018,08,10,08,49,17.80
2018,08,10,08,50,17.90
2018,08,10,08,51,17.90
2018,08,10,08,52,18.00
2018,08,10,08,53,18.10
2018,08,10,08,54,18.10
2018,08,10,08,55,18.20
2018,08,10,08,56,18.20
2018,08,10,08,57,18.20
2018,08,10,08,58,18.30
2018,08,10,08,59,18.30
2018,08,10,09,00,18.40
2018,08,10,09,01,18.50
2018,08,10,09,02,18.50
2018,08,10,09,03,18.50
2018,08,10,09,04,18.60
2018,08,10,09,05,18.60
2018,08,10,09,06,18.70
2018,08,10,09,07,18.70
2018,08,10,09,08,18.80
2018,08,10,09,09,18.80
2018,08,10,09,10,18.80
2018,08,10,09,11,18.90
2018,08,10,09,12,18.90
2018,08,10,09,13,18.90
2018,08,10,09,14,18.90
2018,08,10,09,15,18.90
2018,08,10,09,16,18.90
2018,08,10,09,17,18.90
2018,08,10,09,18,18.90
2018,08,10,09,19,19.10
2018,08,10,09,20,19.10
2018,08,10,09,21,19.10
2018,08,10,09,22,19.20
2018,08,10,09,23,19.30
2018,08,10,09,24,19.40
2018,08,10,09,25,19.40
2018,08,10,09,26,19.50
2018,08,10,09,27,19.50
2018,08,10,09,28,19.50
2018,08,10,09,29,19.50
2018,08,10,09,30,19.60
2018,08,10,09,31,19.60
2018,08,10,09,32,19.70
2018,08,10,09,33,19.70
2018,08,10,09,34,19.70
2018,08,10,09,35,19.70
2018,08,10,09,36,19.70
2018,08,10,09,37,19.70
2018,08,10,09,38,19.70
2018,08,10,09,39,19.60
2018,08,10,09,40,19.60
2018,08,10,09,41,19.50
2018,08,10,09,42,19.50
2018,08,10,09,43,19.40
2018,08,10,09,44,19.40
2018,08,10,09,45,19.30
2018,08,10,09,46,19.20
2018,08,10,09,47,19.10
2018,08,10,09,48,19.10
2018,08,10,09,49,18.90
2018,08,10,09,50,18.90
2018,08,10,09,51,18.70
2018,08,10,09,52,18.60
2018,08,10,09,53,18.50
2018,08,10,09,54,18.30
2018,08,10,09,55,18.20
2018,08,10,09,56,18.10
2018,08,10,09,57,18.00
2018,08,10,09,58,17.90
2018,08,10,09,59,17.80
2018,08,10,10,00,17.70
2018,08,10,10,01,17.60
2018,08,10,10,02,17.50
2018,08,10,10,03,17.40
2018,08,10,10,04,17.40
2018,08,10,10,05,17.30
2018,08,10,10,06,17.30
2018,08,10,10,07,17.40
2018,08,10,10,08,17.40
2018,08,10,10,09,17.50
2018,08,10,10,10,17.50
2018,08,10,10,11,17.50
2018,08,10,10,12,17.50
2018,08,10,10,13,17.60
2018,08,10,10,14,17.60
2018,08,10,10,15,17.70
2018,08,10,10,16,17.70
2018,08,10,10,17,17.70
2018,08,10,10,18,17.80
2018,08,10,10,19,17.80
2018,08,10,10,20,17.90
2018,08,10,10,21,17.80
2018,08,10,10,22,17.80
2018,08,10,10,23,17.80
2018,08,10,10,24,17.80
2018,08,10,10,25,17.90
2018,08,10,10,26,17.90
2018,08,10,10,27,18.00
2018,08,10,10,28,18.10
2018,08,10,10,29,18.10
2018,08,10,10,30,18.20
2018,08,10,10,31,18.20
2018,08,10,10,32,18.30
2018,08,10,10,33,18.40
2018,08,10,10,34,18.50
2018,08,10,10,35,18.60
2018,08,10,10,36,18.60
2018,08,10,10,37,18.70
2018,08,10,10,38,18.70
2018,08,10,10,39,18.70
2018,08,10,10,40,18.80
2018,08,10,10,41,18.80
2018,08,10,10,42,18.90
2018,08,10,10,43,18.90
2018,08,10,10,44,18.90
2018,08,10,10,45,18.90
2018,08,10,10,46,18.90
2018,08,10,10,47,19.00
2018,08,10,10,48,19.10
2018,08,10,10,49,19.10
2018,08,10,10,50,19.10
2018,08,10,10,51,19.10
2018,08,10,10,52,19.10
2018,08,10,10,53,19.10
2018,08,10,10,54,19.10
2018,08,10,10,55,19.10
2018,08,10,10,56,19.10
2018,08,10,10,57,19.10
2018,08,10,10,58,18.90
2018,08,10,10,59,18.90
2018,08,10,11,00,18.90
2018,08,10,11,01,18.80
2018,08,10,11,02,18.70
2018,08,10,11,03,18.70
2018,08,10,11,04,18.70
2018,08,10,11,05,18.70
2018,08,10,11,06,18.70
2018,08,10,11,07,18.80
2018,08,10,11,08,18.80
2018,08,10,11,09,18.90
2018,08,10,11,10,18.90
2018,08,10,11,11,18.90
2018,08,10,11,12,19.10
2018,08,10,11,13,19.10
2018,08,10,11,14,19.10
2018,08,10,11,15,19.10
2018,08,10,11,16,19.20
2018,08,10,11,17,19.20
2018,08,10,11,18,19.20
2018,08,10,11,19,19.20
2018,08,10,11,20,19.20
2018,08,10,11,21,19.20
2018,08,10,11,22,19.20
2018,08,10,11,23,19.10
2018,08,10,11,24,19.10
2018,08,10,11,25,19.00
2018,08,10,11,26,18.90
2018,08,10,11,27,18.90
2018,08,10,11,28,18.80
2018,08,10,11,29,18.70
2018,08,10,11,30,18.60
2018,08,10,11,31,18.60
2018,08,10,11,32,18.60
2018,08,10,11,33,18.50
2018,08,10,11,34,18.60
2018,08,10,11,35,18.50
2018,08,10,11,36,18.50
2018,08,10,11,37,18.50
2018,08,10,11,38,18.50
2018,08,10,11,39,18.50
2018,08,10,11,40,18.50
2018,08,10,11,41,18.50
2018,08,10,11,42,18.50
2018,08,10,11,43,18.50
2018,08,10,11,44,18.50
2018,08,10,11,45,18.50
2018,08,10,11,46,18.50
2018,08,10,11,47,18.50
2018,08,10,11,48,18.60
2018,08,10,11,49,18.60
2018,08,10,11,50,18.70
2018,08,10,11,51,18.70
2018,08,10,11,52,18.80
2018,08,10,11,53,18.90
2018,08,10,11,54,18.90
2018,08,10,11,55,19.00
2018,08,10,11,56,19.10
2018,08,10,11,57,19.10
2018,08,10,11,58,19.20
2018,08,10,11,59,19.30
2018,08,10,12,00,19.40
2018,08,10,12,01,19.50
2018,08,10,12,02,19.60
2018,08,10,12,03,19.70
2018,08,10,12,04,19.80
2018,08,10,12,05,19.90
2018,08,10,12,06,19.90
2018,08,10,12,07,20.00
2018,08,10,12,08,20.10
2018,08,10,12,09,20.20
2018,08,10,12,10,20.20
2018,08,10,12,11,20.20
2018,08,10,12,12,20.20
2018,08,10,12,13,20.20
2018,08,10,12,14,20.20
2018,08,10,12,15,20.20
2018,08,10,12,16,20.20
2018,08,10,12,17,20.20
2018,08,10,12,18,20.20
2018,08,10,12,19,20.20
2018,08,10,12,20,20.20
2018,08,10,12,21,20.20
2018,08,10,12,22,20.20
2018,08,10,12,23,20.20
2018,08,10,12,24,20.20
2018,08,10,12,25,20.20
2018,08,10,12,26,20.20
2018,08,10,12,27,20.10
2018,08,10,12,28,20.10
2018,08,10,12,29,20.10
2018,08,10,12,30,19.90
2018,08,10,12,31,19.90
2018,08,10,12,32,19.90
2018,08,10,12,33,19.80
2018,08,10,12,34,19.70
2018,08,10,12,35,19.60
2018,08,10,12,36,19.60
2018,08,10,12,37,19.50
2018,08,10,12,38,19.40
2018,08,10,12,39,19.30
2018,08,10,12,40,19.20
2018,08,10,12,41,19.10
2018,08,10,12,42,19.00
2018,08,10,12,43,18.90
2018,08,10,12,44,18.80
2018,08,10,12,45,18.70
2018,08,10,12,46,18.60
2018,08,10,12,47,18.50
2018,08,10,12,48,18.40
2018,08,10,12,49,18.30
2018,08,10,12,50,18.20
2018,08,10,12,51,18.20
2018,08,10,12,52,18.30
2018,08,10,12,53,18.30
2018,08,10,12,54,18.30
2018,08,10,12,55,18.30
2018,08,10,12,56,18.30
2018,08,10,12,57,18.20
2018,08,10,12,58,18.20
2018,08,10,12,59,18.00
2018,08,10,13,00,17.90
2018,08,10,13,01,17.90
2018,08,10,13,02,17.90
2018,08,10,13,03,17.80
2018,08,10,13,04,17.80
2018,08,10,13,05,17.70
2018,08,10,13,06,17.70
2018,08,10,13,07,17.60
2018,08,10,13,08,17.60
2018,08,10,13,09,17.50
2018,08,10,13,10,17.50
2018,08,10,13,11,17.50
2018,08,10,13,12,17.50
2018,08,10,13,13,17.50
2018,08,10,13,14,17.40
2018,08,10,13,15,17.40
2018,08,10,13,16,17.40
2018,08,10,13,17,17.50
2018,08,10,13,18,17.60
2018,08,10,13,19,17.70
2018,08,10,13,20,17.80
2018,08,10,13,21,17.90
2018,08,10,13,22,18.00
2018,08,10,13,23,18.10
2018,08,10,13,24,18.10
2018,08,10,13,25,18.20
2018,08,10,13,26,18.20
2018,08,10,13,27,18.30
2018,08,10,13,28,18.40
2018,08,10,13,29,18.50
2018,08,10,13,30,18.50
2018,08,10,13,31,18.60
2018,08,10,13,32,18.70
2018,08,10,13,33,18.80
2018,08,10,13,34,18.90
2018,08,10,13,35,19.00
2018,08,10,13,36,19.10
2018,08,10,13,37,19.10
2018,08,10,13,38,19.20
2018,08,10,13,39,19.30
2018,08,10,13,40,19.40
2018,08,10,13,41,19.40
2018,08,10,13,42,19.50
2018,08,10,13,43,19.60
2018,08,10,13,44,19.70
2018,08,10,13,45,19.80
2018,08,10,13,46,19.90
2018,08,10,13,47,19.90
2018,08,10,13,48,20.10
2018,08,10,13,49,20.20
2018,08,10,13,50,20.30
2018,08,10,13,51,20.50
2018,08,10,13,52,20.60
2018,08,10,13,53,20.70
2018,08,10,13,54,20.90
2018,08,10,13,55,21.00
2018,08,10,13,56,21.20
2018,08,10,13,57,21.40
2018,08,10,13,58,21.60
2018,08,10,13,59,21.80
2018,08,10,14,00,22.00
2018,08,10,14,01,22.10
2018,08,10,14,02,22.30
2018,08,10,14,03,22.50
2018,08,10,14,04,22.60
2018,08,10,14,05,22.70
2018,08,10,14,06,22.80
2018,08,10,14,07,22.90
2018,08,10,14,08,22.90
2018,08,10,14,09,22.90
2018,08,10,14,10,23.00
2018,08,10,14,11,23.10
2018,08,10,14,12,23.10
2018,08,10,14,13,23.20
2018,08,10,14,14,23.30
2018,08,10,14,15,23.40
2018,08,10,14,16,23.60
2018,08,10,14,17,23.70
2018,08,10,14,18,23.70
2018,08,10,14,19,23.80
2018,08,10,14,20,23.80
2018,08,10,14,21,23.90
2018,08,10,14,22,23.90
2018,08,10,14,23,24.10
2018,08,10,14,24,24.10
2018,08,10,14,25,24.10
2018,08,10,14,26,24.10
2018,08,10,14,27,24.20
2018,08,10,14,28,24.30
2018,08,10,14,29,24.40
2018,08,10,14,30,24.40
2018,08,10,14,31,24.40
2018,08,10,14,32,24.50
2018,08,10,14,33,24.50
2018,08,10,14,34,24.50
2018,08,10,14,35,24.60
2018,08,10,14,36,24.60
2018,08,10,14,37,24.60
2018,08,10,14,38,24.50
2018,08,10,14,39,24.50
2018,08,10,14,40,24.50
2018,08,10,14,41,24.50
2018,08,10,14,42,24.40
2018,08,10,14,43,24.30
2018,08,10,14,44,24.30
2018,08,10,14,45,24.30
2018,08,10,14,46,24.30
2018,08,10,14,47,24.30
2018,08,10,14,48,24.30
2018,08,10,14,49,24.20
2018,08,10,14,50,24.10
2018,08,10,14,51,24.10
2018,08,10,14,52,24.10
2018,08,10,14,53,24.10
2018,08,10,14,54,23.90
2018,08,10,14,55,23.90
2018,08,10,14,56,23.80
2018,08,10,14,57,23.70
2018,08,10,14,58,23.70
2018,08,10,14,59,23.70
2018,08,10,15,00,23.70
2018,08,10,15,01,23.80
2018,08,10,15,02,23.80
2018,08,10,15,03,23.90
2018,08,10,15,04,24.00
2018,08,10,15,05,24.10
2018,08,10,15,06,24.10
2018,08,10,15,07,24.10
2018,08,10,15,08,24.10
2018,08,10,15,09,24.10
2018,08,10,15,10,24.10
2018,08,10,15,11,24.20
2018,08,10,15,12,24.30
2018,08,10,15,13,24.40
2018,08,10,15,14,24.50
2018,08,10,15,15,24.80
2018,08,10,15,16,25.00
2018,08,10,15,17,25.20
2018,08,10,15,18,25.40
2018,08,10,15,19,25.70
2018,08,10,15,20,25.90
2018,08,10,15,21,26.10
2018,08,10,15,22,26.40
2018,08,10,15,23,26.50
2018,08,10,15,24,26.70
2018,08,10,15,25,26.90
2018,08,10,15,26,27.00
2018,08,10,15,27,27.10
2018,08,10,15,28,27.20
2018,08,10,15,29,27.20
2018,08,10,15,30,27.20
2018,08,10,15,31,27.30
2018,08,10,15,32,27.30
2018,08,10,15,33,27.30
2018,08,10,15,34,27.30
2018,08,10,15,35,27.40
2018,08,10,15,36,27.40
2018,08,10,15,37,27.40
2018,08,10,15,38,27.40
2018,08,10,15,39,27.40
2018,08,10,15,40,27.30
2018,08,10,15,41,27.30
2018,08,10,15,42,27.30
2018,08,10,15,43,27.20
2018,08,10,15,44,27.10
2018,08,10,15,45,27.10
2018,08,10,15,46,27.00
2018,08,10,15,47,26.80
2018,08,10,15,48,26.60
2018,08,10,15,49,26.50
2018,08,10,15,50,26.20
2018,08,10,15,51,25.90
2018,08,10,15,52,25.70
2018,08,10,15,53,25.50
2018,08,10,15,54,25.30
2018,08,10,15,55,25.00
2018,08,10,15,56,24.60
2018,08,10,15,57,24.10
2018,08,10,15,58,23.70
2018,08,10,15,59,23.10
2018,08,10,16,00,22.40
2018,08,10,16,01,21.80
2018,08,10,16,02,21.40
2018,08,10,16,03,21.10
2018,08,10,16,04,20.70
2018,08,10,16,05,20.40
2018,08,10,16,06,20.20
2018,08,10,16,07,20.10
2018,08,10,16,08,19.90
2018,08,10,16,09,19.80
2018,08,10,16,10,19.60
2018,08,10,16,11,19.60
2018,08,10,16,12,19.50
2018,08,10,16,13,19.40
2018,08,10,16,14,19.30
2018,08,10,16,15,19.30
2018,08,10,16,16,19.30
2018,08,10,16,17,19.10
2018,08,10,16,18,19.10
2018,08,10,16,19,19.10
2018,08,10,16,20,19.10
2018,08,10,16,21,19.10
2018,08,10,16,22,19.20
2018,08,10,16,23,19.30
2018,08,10,16,24,19.40
2018,08,10,16,25,19.50
2018,08,10,16,26,19.60
2018,08,10,16,27,19.80
2018,08,10,16,28,20.00
2018,08,10,16,29,20.20
2018,08,10,16,30,20.50
2018,08,10,16,31,20.90
2018,08,10,16,32,21.30
2018,08,10,16,33,21.90
2018,08,10,16,34,22.40
2018,08,10,16,35,23.00
2018,08,10,16,36,23.50
2018,08,10,16,37,23.90
2018,08,10,16,38,24.40
2018,08,10,16,39,24.80
2018,08,10,16,40,25.20
2018,08,10,16,41,25.50
2018,08,10,16,42,25.80
2018,08,10,16,43,26.00
2018,08,10,16,44,26.30
2018,08,10,16,45,26.50
2018,08,10,16,46,26.60
2018,08,10,16,47,26.80
2018,08,10,16,48,27.00
2018,08,10,16,49,27.10
2018,08,10,16,50,27.20
2018,08,10,16,51,27.30
2018,08,10,16,52,27.40
2018,08,10,16,53,27.40
2018,08,10,16,54,27.60
2018,08,10,16,55,27.60
2018,08,10,16,56,27.70
2018,08,10,16,57,27.70
2018,08,10,16,58,27.60
2018,08,10,16,59,27.60
2018,08,10,17,00,27.60
2018,08,10,17,01,27.60
2018,08,10,17,02,27.60
2018,08,10,17,03,27.50
2018,08,10,17,04,27.40
2018,08,10,17,05,27.30
2018,08,10,17,06,27.30
2018,08,10,17,07,27.30
2018,08,10,17,08,27.30
2018,08,10,17,09,27.30
2018,08,10,17,10,27.30
2018,08,10,17,11,27.30
2018,08,10,17,12,27.20
2018,08,10,17,13,27.20
2018,08,10,17,14,27.20
2018,08,10,17,15,27.10
2018,08,10,17,16,27.10
2018,08,10,17,17,27.00
2018,08,10,17,18,26.90
2018,08,10,17,19,26.90